Milwaukee Timmerman, WI

10:39 AM CDT on July 22, 2017 (GMT -0500)
Timmerman

Weather History for KMWC - December, 2013

Change the Weather History Date:

Sunday, December 8, 2013

  Actual Average Record
Temperature  
Mean Temperature 18 °F -  
Max Temperature 28 °F 35 °F 56 °F (1966)
Min Temperature 8 °F 22 °F -1 °F (1976)
Degree Days  
Heating Degree Days 47    
Moisture  
Dew Point 11 °F    
Average Humidity 75    
Maximum Humidity 93    
Minimum Humidity 57    
Precipitation  
Precipitation 0.00 in - - ()
Sea Level Pressure  
Sea Level Pressure 30.29 in    
Wind  
Wind Speed 3 mph (NE)    
Max Wind Speed 12 mph    
Max Gust Speed 17 mph    
Visibility 7 miles    
Events Snow    
Averages and records for this station are not official NWS values.
T = Trace of Precipitation, MM = Missing Value Source: NWS Daily Summary

Daily Weather History Graph

Daily Weather History Graph

Search for Another Location

Airport or City:

Trip Planner

Search our weather history database for the weather conditions in past years. The results will help you decide how hot, cold, wet, or windy it might be!

Date:

Astronomy

Dec. 08, 2013 Rise Set
Actual Time 7:11 AM CST 4:16 PM CST
Civil Twilight 6:39 AM CST 4:49 PM CST
Nautical Twilight 6:03 AM CST 5:24 PM CST
Astronomical Twilight 5:28 AM CST 5:59 PM CST
Moon 11:24 AM CST (12/8) 11:14 PM CST (12/8)
Length of Visible Light 10h 10m
Length of Day
9h 05m
Waxing Crescent, 40% of the Moon is Illuminated
Dec 8
Waxing Crescent
Dec 9
First Quarter
Dec 17
Full
Dec 25
Last Quarter
Jan 1
New

Hourly Weather History & Observations

Time (CST) Temp. Windchill Dew Point Humidity Pressure Visibility Wind Dir Wind Speed Gust Speed Precip Events Conditions
12:15 AM 8.6 °F - 1.4 °F 73% 30.59 in 10.0 mi Calm Calm - N/A   Clear
12:35 AM 8.6 °F - -0.4 °F 67% 30.59 in 10.0 mi Calm Calm - N/A   Clear
12:55 AM 8.6 °F - 1.4 °F 73% 30.59 in 10.0 mi Calm Calm - N/A   Scattered Clouds
1:15 AM 8.6 °F - 1.4 °F 73% 30.58 in 10.0 mi Calm Calm - N/A   Mostly Cloudy
1:35 AM 10.4 °F - -0.4 °F 62% 30.58 in 10.0 mi Calm Calm - N/A   Overcast
1:55 AM 10.4 °F - 1.4 °F 67% 30.58 in 10.0 mi Calm Calm - N/A   Overcast
2:15 AM 10.4 °F - 1.4 °F 67% 30.57 in 10.0 mi Calm Calm - N/A   Scattered Clouds
2:35 AM 10.4 °F - 1.4 °F 67% 30.56 in 10.0 mi Calm Calm - N/A   Clear
2:55 AM 10.4 °F 2.2 °F 1.4 °F 67% 30.54 in 10.0 mi North 4.6 mph - N/A   Scattered Clouds
3:15 AM 10.4 °F 2.2 °F 1.4 °F 67% 30.53 in 10.0 mi North 4.6 mph - N/A   Scattered Clouds
3:35 AM 10.4 °F 2.2 °F 1.4 °F 67% 30.52 in 10.0 mi North 4.6 mph - N/A   Mostly Cloudy
3:55 AM 10.4 °F -0.4 °F -0.4 °F 62% 30.51 in 10.0 mi North 6.9 mph - N/A   Mostly Cloudy
4:15 AM 10.4 °F -1.5 °F -0.4 °F 62% 30.50 in 10.0 mi North 8.1 mph - N/A   Overcast
4:35 AM 10.4 °F 4.0 °F -0.4 °F 62% 30.51 in 10.0 mi North 3.5 mph - N/A   Overcast
4:55 AM 10.4 °F 4.0 °F -0.4 °F 62% 30.51 in 10.0 mi NNE 3.5 mph - N/A   Overcast
5:15 AM 10.4 °F 2.2 °F -0.4 °F 62% 30.51 in 10.0 mi NNW 4.6 mph - N/A   Overcast
5:35 AM 10.4 °F 4.0 °F 1.4 °F 67% 30.50 in 10.0 mi North 3.5 mph - N/A   Overcast
5:55 AM 10.4 °F 4.0 °F -0.4 °F 62% 30.50 in 10.0 mi North 3.5 mph - N/A   Overcast
6:15 AM 12.2 °F 6.1 °F -0.4 °F 57% 30.48 in 10.0 mi NE 3.5 mph - N/A   Overcast
6:35 AM 12.2 °F 1.7 °F -0.4 °F 57% 30.47 in 10.0 mi NE 6.9 mph - N/A   Overcast
6:45 AM 10.4 °F 2.2 °F -2.2 °F 57% 30.48 in 10.0 mi NNE 4.6 mph - N/A   Overcast
7:45 AM 12.2 °F 2.9 °F 1.4 °F 62% 30.43 in 10.0 mi NNE 5.8 mph - N/A   Overcast
8:45 AM 14.0 °F 3.9 °F 6.8 °F 73% 30.42 in 10.0 mi North 6.9 mph - N/A Snow Light Snow
9:30 AM 15.8 °F 3.4 °F 10.4 °F 79% 30.40 in 1.5 mi NNE 10.4 mph - N/A Snow Light Snow
9:45 AM 15.8 °F 6.1 °F 10.4 °F 79% 30.39 in 1.5 mi NNE 6.9 mph - N/A Snow Snow
10:45 AM 17.6 °F 5.7 °F 12.2 °F 79% 30.35 in 0.5 mi NNE 10.4 mph - N/A Snow Snow
11:45 AM 17.6 °F 7.3 °F 14.0 °F 86% 30.31 in 0.8 mi North 8.1 mph - N/A Snow Light Snow
12:45 PM 24.8 °F 14.0 °F 19.4 °F 80% 30.26 in 0.5 mi East 11.5 mph 17.3 mph N/A Snow Snow
1:45 PM 24.8 °F 14.6 °F 19.4 °F 80% 30.21 in 0.8 mi East 10.4 mph 16.1 mph N/A Snow Light Snow
2:45 PM 23.0 °F 12.4 °F 19.4 °F 86% 30.17 in 1.0 mi East 10.4 mph - N/A Snow Light Snow
3:45 PM 23.0 °F 13.9 °F 19.4 °F 86% 30.14 in 1.0 mi East 8.1 mph - N/A   Overcast
4:45 PM 24.8 °F 16.9 °F 21.2 °F 86% 30.09 in 1.0 mi ENE 6.9 mph - N/A Snow Light Snow
5:45 PM 26.6 °F 19.1 °F 23.0 °F 86% 30.07 in 1.5 mi East 6.9 mph - N/A Snow Light Snow
6:50 PM 26.6 °F 16.2 °F 23.0 °F 86% 30.04 in 1.0 mi ESE 11.5 mph - N/A Snow Light Snow
7:45 PM 26.6 °F 18.2 °F 21.2 °F 80% 30.03 in 1.8 mi SE 8.1 mph - N/A Snow Light Snow
8:15 PM 26.6 °F 20.0 °F 23.0 °F 86% 30.02 in 2.0 mi ESE 5.8 mph - N/A Snow Light Snow
8:35 PM 26.6 °F 20.0 °F 23.0 °F 86% 30.01 in 1.8 mi ESE 5.8 mph - N/A Snow Light Snow
8:45 PM 26.6 °F 20.0 °F 23.0 °F 86% 30.00 in 1.8 mi ESE 5.8 mph - N/A Snow Light Snow
8:55 PM 26.6 °F 22.6 °F 23.0 °F 86% 30.00 in 1.8 mi ESE 3.5 mph - N/A Snow Light Snow
9:15 PM 26.6 °F 21.2 °F 23.0 °F 86% 29.98 in 4.0 mi East 4.6 mph - N/A Snow Light Snow
9:35 PM 26.6 °F 22.6 °F 23.0 °F 86% 29.97 in 4.0 mi East 3.5 mph - N/A Snow Light Snow
9:55 PM 26.6 °F 22.6 °F 24.8 °F 93% 29.95 in 7.0 mi East 3.5 mph - N/A Snow Light Snow
10:15 PM 28.4 °F - 24.8 °F 86% 29.94 in 10.0 mi Calm Calm - N/A   Overcast
10:35 PM 28.4 °F 24.6 °F 24.8 °F 86% 29.94 in 5.0 mi SSW 3.5 mph - N/A Snow Light Snow
10:55 PM 26.6 °F - 23.0 °F 86% 29.92 in 10.0 mi Calm Calm - N/A   Overcast
11:15 PM 26.6 °F 22.6 °F 23.0 °F 86% 29.91 in 10.0 mi SW 3.5 mph - N/A   Overcast
11:35 PM 28.4 °F 23.3 °F 23.0 °F 80% 29.91 in 10.0 mi SW 4.6 mph - N/A   Overcast
11:55 PM 26.6 °F 20.0 °F 23.0 °F 86% 29.91 in 10.0 mi SW 5.8 mph - N/A   Overcast